Regional Weather Roundup
Issued by NWS

Home | Current Version | Previous Version | Graphics & Text | Print | Product List | Glossary On
Versions: 1 2 3 4 5 6 7 8 9 10 11 12 13 14 15 16 17 18 19 20 21 22 23 24 25 26 27 28 29 30 31 32 33 34 35 36 37 38 39 40 41 42 43 44 45 46 47 48 49 50
000
ASUS43 KFSD 271610
RWRSD

WEATHER ROUNDUP FOR SOUTH DAKOTA
NATIONAL WEATHER SERVICE SIOUX FALLS SD
1100 AM CDT MON MAR 27 2017

NOTE: "FAIR" INDICATES FEW OR NO CLOUDS BELOW 12,000 FEET WITH NO
SIGNIFICANT WEATHER AND/OR OBSTRUCTIONS TO VISIBILITY.


SDZ001>005-009-010-012>017-271700-
NORTHWEST AND NORTH CENTRAL SOUTH DAKOTA

CITY           SKY/WX    TMP DP  RH WIND       PRES   REMARKS
BUFFALO          N/A     48  39  71 S9        29.83S
FAITH            N/A     48  41  76 MISG      29.92R
MOBRIDGE       SUNNY     45  39  79 SE6       29.93R
$$

SDZ012>016-024>037-041>051-057-063-072>074-271700-
SOUTHWEST AND SOUTH CENTRAL SOUTH DAKOTA

CITY           SKY/WX    TMP DP  RH WIND       PRES   REMARKS
RAPID CTY ARPT PTSUNNY   39  37  92 SE8       29.90R
PIERRE         CLOUDY    47  39  74 SE5       29.94S
CUSTER         MOSUNNY   45  36  70 CALM      29.87F
ELLSWORTH AFB  SUNNY     44  39  81 E6        29.89R
PHILIP         SUNNY     50  39  66 VRB5      29.92F
PINE RIDGE     SUNNY     53  41  63 CALM      29.89F
SPEARFISH      FAIR      48  36  61 CALM      29.88S
WINNER         FAIR      50  39  66 S7        29.95S
$$

SDZ004>011-016>023-039-040-271700-
NORTHEAST SOUTH DAKOTA

CITY           SKY/WX    TMP DP  RH WIND       PRES   REMARKS
ABERDEEN       SUNNY     50  38  63 VRB5      29.97S
WATERTOWN      CLOUDY    46  38  73 N3        29.96S
BROOKINGS      SUNNY     46  39  76 CALM      29.97S
SISSETON         N/A     45  39  79 S3        29.98S
$$

SDZ017-020-022-023-036>040-048>070-271700-
SOUTHEAST SOUTH DAKOTA

CITY           SKY/WX    TMP DP  RH WIND       PRES   REMARKS
SIOUX FALLS    PTSUNNY   49  37  63 N8        29.99R
HURON          CLOUDY    48  40  73 S7        29.97F
CHAMBERLAIN    CLOUDY    44  44 100 CALM      29.97S
MITCHELL       CLOUDY    48  40  73 S5        29.99S
YANKTON        CLOUDY    48  39  71 E6        29.99R
$$

ABBREVIATIONS USED IN REMARKS
   TC - TEMPERATURE IN CELSIUS
  WCI - WIND CHILL INDEX
   HX - HEAT INDEX
  VSB - VISIBILITY




USA.gov is the U.S. government's official web portal to all federal, state and local government web resources and services.